Location: Unspecified
(0.0000°N, 0.0000°E)
Time: 16:05:16
(UTC+00:00)

Altair - Pass Details

Date: 03 October 2023
Orbit: 1501 x 1682 km, 47.2° (Epoch: 19 September)

Event Time Altitude Azimuth Distance (km) Brightness Sun altitude
Rises 10:02:01 0° 322° (NW) 4,921 9.9 63.0°
Reaches altitude 10° 10:05:12 10° 323° (NW) 3,929 9.6 63.7°
Maximum altitude 10:15:20 83° 51° (NE) 1,663 9.4 66.2°
Drops below altitude 10° 10:25:11 10° 138° (SE) 3,828 10.0 68.7°
Sets 10:28:14 0° 138° (SE) 4,791 10.3 69.4°
